Volver al catálogo

FENGYUN 1C DEB

ActivoSSO
NORAD 29926·DEBRIS·🇨🇳 China

Lanzado May 10, 1999 desde Taiyuan Satellite Launch Center

Loading…

Próximos Pases (próximas 24 horas)

TLE

ActualizadoSource: Space-Track

Época: Sep 14, 2026, 10:51 UTC

1 29926U 99025HY  26257.45214069  .00000288  00000-0  86363-4 0  9994
2 29926  98.3088 240.3962 0247004 196.8643 325.5208 14.33939084 25305

Sigue FENGYUN 1C DEB en tiempo real con AllMySat

Download on the App Store